Regional Weather Roundup
Issued by NWS

Home | Current Version | Previous Version | Text Only | Print | Product List | Glossary On
Versions: 1 2 3 4 5 6 7 8 9 10 11 12 13 14 15 16 17 18 19 20 21 22 23 24 25 26 27 28 29 30 31 32 33 34 35 36 37 38 39 40 41 42 43 44 45 46 47 48 49 50
000
ASUS44 KFWD 221415
RWRTX
NORTH TEXAS HOURLY WEATHER ROUNDUP
NATIONAL WEATHER SERVICE FORT WORTH TX
800 AM CST MON DEC 22 2014

NOTE: "FAIR" INDICATES FEW OR NO CLOUDS BELOW 12,000 FEET WITH NO
SIGNIFICANT WEATHER AND/OR OBSTRUCTIONS TO VISIBILITY.

TXZ118-119-221500-
DALLAS/FORT WORTH METROPLEX

CITY           SKY/WX    TMP DP  RH WIND       PRES   REMARKS
DFW AIRPORT    PTCLDY    50  48  93 S9        29.59R
DALLAS LOVE    PTCLDY    55  50  83 S7        29.60S
FTW MEACHAM    CLEAR     51  48  89 S10       29.59R FOG
DAL-EXECUTIVE  CLEAR     56  50  80 S8        29.60S
FTW-ALLIANCE   PTCLDY    49  47  93 S9        29.58R
FTW-SPINKS     CLEAR     54  48  82 S10       29.62R
ARLINGTON      CLEAR     53  48  83 S8        29.60S
GRAND PRAIRIE  CLEAR     52  52 100 S6        29.61
ADDISON        PTCLDY    54  50  87 S14       29.61R
MESQUITE       MOCLDY    55  52  88 S15       29.62S
LANCASTER      CLEAR     54  50  87 S12       29.63S
$$

TXZ091>094-102>105-117-120-121-131>134-221500-
NORTH CENTRAL TEXAS

CITY           SKY/WX    TMP DP  RH WIND       PRES   REMARKS
SHRMAN/DENISON CLEAR     51  49  94 S12       29.59F
GAINESVILLE    CLEAR     46  45  97 S6        29.60S FOG
BOWIE          CLEAR     45  44  97 CALM      29.57R FOG
BRIDGEPORT     CLEAR     48  46  95 SW7       29.59R
DECATUR        CLEAR     47  46  96 S7        29.57S
DENTON         CLEAR     48  46  93 S7        29.58S
MCKINNEY       CLEAR     52  49  89 S9        29.60R
GREENVILLE     CLOUDY    57  50  77 S16       29.63R
ROCKWALL       MOCLDY    56  52  87 S18G28    29.60S
TERRELL        MOCLDY    59  52  77 S17G25    29.62F
WAXAHACHIE     CLEAR     52  52  99 S12       29.63S
CLEBURNE       CLEAR     52  52 100 S13       29.62F
GRANBURY       CLEAR     53  48  83 SW7       29.61S
$$

TXZ083>090-098>101-113>116-127>130-139>142-154-155-221500-
WESTERN NORTH TEXAS

CITY           SKY/WX    TMP DP  RH WIND       PRES   REMARKS
WICHITA FALLS  PTCLDY    41  39  93 NW14      29.58R WCI  33
WF-KICKAPOO    PTCLDY    43  38  83 W8        29.59R WCI  38
VERNON         PTCLDY    44  40  87 NW12      29.62R WCI  38
ABILENE        MOCLDY    49  37  63 SW9       29.66R
ABILENE-DYESS  MOCLDY    54  32  44 W10       29.64R
BRECKENRIDGE   CLEAR     49  40  68 SW8       29.61R
GRAHAM         CLEAR     47  40  75 SW6       29.58R
MINERAL WELLS  CLEAR     48  44  86 SW6       29.58R
STEPHENVILLE   CLEAR     51  45  82 SW8       29.64R
COMANCHE       PTCLDY    52  47  81 SW17      29.64R
BROWNWOOD      PTCLDY    50  45  81 SW8       29.67S
COLEMAN        MOCLDY    51  44  76 W10G16    29.67S
BRADY          CLEAR     50  46  87 SW12      29.69S
$$

TXZ143>147-156>162-174-175-221500-
CENTRAL TEXAS

CITY           SKY/WX    TMP DP  RH WIND       PRES   REMARKS
WACO           CLEAR     55  51  86 S9        29.65R
WACO-TSTC      CLEAR     55  54  94 S13       29.65S
WACO-MCGREGOR  PTCLDY    55  48  76 SW15      29.66S
HILLSBORO      CLEAR     53  50  89 S10       29.63F
CORSICANA      MOCLDY    59  52  77 S17G24    29.65F
MEXIA          CLOUDY    57  53  86 S20       29.66S
HEARNE         CLOUDY    59  55  87 S8        29.72S
CAMERON        CLOUDY    58  55  89 S17G25    29.69S
TEMPLE         PTCLDY    55  48  76 S14       29.66S
KILLEEN        PTCLDY    55  53  93 SW10      29.68R
KILLEEN-SKYLRK MOCLDY    55  48  76 SW15      29.64F
FORT HOOD      MOCLDY    55  53  91 SW16G23   29.66R
GATESVILLE     PTCLDY    54  52  94 SW14      29.67S
HAMILTON       PTCLDY    54  50  86 SW22G28   29.66R
$$

TXZ095>097-106>112-122>126-135>138-148>153-164>167-221500-
EAST TEXAS

CITY           SKY/WX    TMP DP  RH WIND       PRES   REMARKS
PARIS          CLOUDY    54  48  82 S10       29.64R
SULPHUR SPRNGS CLOUDY    57  52  84 S10       29.65S
MOUNT PLEASANT PTCLDY    54  52  92 S9G17     29.67S
MINEOLA        CLOUDY    59  55  88 S9G18     29.66F
TYLER          CLOUDY    59  53  80 S15       29.66F
LONGVIEW       CLOUDY    56  52  86 S12       29.68F
MARSHALL       CLOUDY    54  51  92 S5        29.73F
ATHENS         CLOUDY    57  54  88 S10G23    29.66S
PALESTINE      CLOUDY    58  56  94 S8        29.70S
JACKSONVILLE   CLOUDY    57  56  94 S10G17    29.70F FOG
HENDERSON      CLOUDY    55  55  97 S9G17     29.71F
NACOGDOCHES    CLOUDY    55  54  94 S9        29.73F
LUFKIN         CLOUDY    60  56  86 S7        29.74R FOG
$$

SUPPLEMENTAL OBSERVATIONS (CENTRAL)

CITY           SKY/WX    TMP DP  RH WIND       PRES   REMARKS
LAKE TEXOMA      N/A     54  48  82 S8          N/A
CADDO GRASSLND   N/A     54  50  87 S7          N/A
PAT MAYSE LAKE   N/A     54  50  87 SE8         N/A
GREENVILLE       N/A     55  50  82 S10         N/A
CEDAR HILL       N/A     54  50  87 S10G20      N/A
PALESTINE        N/A     57  52  82 SW8G18      N/A
LAKE LIMESTONE   N/A     61  55  82 S15G22      N/A
MCGREGOR         N/A     55  52  88 SW8         N/A
TEMPLE           N/A     55  52  88 SW5G16      N/A
$$

SUPPLEMENTAL OBSERVATIONS (WEST)

CITY           SKY/WX    TMP DP  RH WIND       PRES   REMARKS
MILLERS CREEK    N/A     45  36  70 NW8         N/A
POSSUM KINGDOM   N/A     52  39  62 W10         N/A
LBJ GRASSLAND    N/A     46  43  87 S6          N/A
GRANBURY         N/A     52  46  82 SW8         N/A
HAMBY            N/A     46  34  61 SW6         N/A
IVIE RESERVOIR   N/A     55  43  62 W17         N/A
COLORADO BEND    N/A     54  50  87 SW10        N/A
$$

SUPPLEMENTAL OBSERVATIONS (EAST)

CITY           SKY/WX    TMP DP  RH WIND       PRES   REMARKS
CLARKSVILLE      N/A     54  52  94 S8          N/A
TEXARKANA        N/A     52  46  82 S5G13       N/A
LINDEN           N/A     52  48  87 S5          N/A
GILMER           N/A     55  52  88 S8          N/A
HENDERSON        N/A     55  50  82 S12         N/A
LUFKIN           N/A     57  54  88 MISG        N/A
N SABINE NF      N/A     54  50  87 MISG        N/A
S SABINE NF      N/A     52  48  87 S3          N/A
$$

SUPPLEMENTAL OBSERVATIONS ARE A COLLECTION OF AUTOMATED INSTRUMENTS
THAT ARE MAINTAINED BY A VARIETY OF FEDERAL AND STATE AGENCIES.
CERTAIN ELEMENTS...SUCH AS HUMIDITY VALUES AND SUSTAINED WIND
SPEEDS...MAY BE APPROXIMATED.




USA.gov is the U.S. government's official web portal to all federal, state and local government web resources and services.